Location: Berlise
(49.6641°N, 4.1077°E)
Time: 02:27:08
(UTC+00:00)

Cosmos 1726 Rocket - Pass Details

Date: 27 January 2021
Orbit: 604 x 628 km, 82.5° (Epoch: 28 February)

Event Time Altitude Azimuth Distance (km) Brightness Sun altitude
Rises 06:12:14 0° 198° (SSW) 2,846 6.9 -11.4°
Reaches altitude 10° 06:14:28 10° 201° (SSW) 1,947 6.1 -11.1°
Maximum altitude 06:18:43 61° 282° (WNW) 691 3.5 -10.4°
Drops below altitude 10° 06:23:02 10° 4° (N) 1,968 6.0 -9.7°
Sets 06:25:17 0° 8° (N) 2,879 6.9 -9.4°
